RH
77 75 75 79 82 82 84 84 86 84 79 77 81 88 90 86 82 84 86 93 93 88 94 95 94 97 98 97 97 98 98 99 97 97 97 98 98 97 95 96 95 84 67
85 76 80 83 88 88 88 85 78 81 74 80 82 85 94 90 89 93 92 91 89 87 88 88 91 90 97 99 99 98 99 98 97 98 97 97 96 98 95 92 90 87 85
88 86 83 90 93 93 93 85 84 77 75 80 81 86 93 90 94 94 96 89 90 93 95 97 95 95 97 97 96 96 97 93 98 95 92 98 97 97 97 95 90 87 86
90 88 86 91 93 92 92 87 80 76 77 83 83 88 90 94 96 92 89 91 86 86 88 95 96 94 91 94 93 91 92 98 96 99 99 98 94 95 94 90 94 90 90
90 90 90 89 89 92 95 90 84 72 76 86 88 93 94 92 91 90 91 88 87 86 87 88 91 94 93 93 96 96 98 98 98 99 97 99 99 99 98 97 94 91 88
89 89 88 89 92 92 92 90 81 74 74 80 85 89 92 92 93 91 92 92 88 88 85 87 90 91 95 93 95 98 98 98 97 98 98 99 99 99 99 98 95 94 91
89 91 92 93 93 93 91 84 83 71 70 75 79 83 87 86 88 88 90 88 88 85 86 83 86 88 88 93 92 96 97 97 97 96 96 94 93 92 95 98 97 98 86
90 91 90 92 93 92 92 87 83 72 68 64 70 76 80 88 85 84 86 86 81 82 74 80 78 75 78 80 88 93 94 94 95 90 88 89 88 88 93 93 94 96 92
88 85 89 92 93 92 91 90 73 69 65 58 57 58 60 64 70 65 65 74 66 48 56 58 64 63 70 75 80 85 85 84 85 89 91 88 88 91 86 86 89 93 95
87 88 90 92 92 90 90 88 81 65 60 58 53 50 55 57 57 51 50 52 53 55 54 50 50 50 55 61 67 71 71 77 84 84 84 84 83 92 85 89 88 90 89
89 91 91 92 92 91 89 83 81 72 66 59 57 56 56 56 54 48 47 47 49 50 51 51 51 50 54 58 59 59 63 63 64 71 76 77 76 87 83 88 90 88 92
87 91 90 92 93 93 92 88 76 73 65 64 61 57 55 51 50 49 47 46 46 45 45 46 47 47 51 62 67 68 72 75 75 76 77 79 70 84 83 86 88 86 86
89 90 92 94 94 94 92 88 83 75 67 53 52 50 48 48 50 50 50 49 51 51 51 51 53 54 54 60 66 71 74 75 75 74 76 75 76 81 84 88 86 92 82
83 86 89 92 93 92 91 83 76 66 56 54 54 50 47 47 48 48 50 54 56 58 59 59 60 61 55 54 64 70 77 78 73 72 75 74 76 79 84 74 87 81 89
90 87 86 89 90 93 88 82 66 54 52 53 54 49 45 46 50 52 55 58 58 59 62 64 66 66 55 53 70 72 79 81 80 80 74 72 74 68 58 76 83 80 85
78 81 82 83 86 89 88 71 56 54 52 51 51 48 44 48 54 58 60 61 64 66 67 69 70 70 54 60 60 66 78 79 82 84 83 79 72 71 63 60 59 62 75
69 79 81 78 76 74 68 62 55 55 54 52 49 48 47 52 58 60 62 64 69 72 74 74 74 73 71 59 59 59 76 81 85 86 86 77 60 76 75 70 61 63 60
62 71 77 74 72 70 65 64 61 56 57 55 53 51 54 56 61 64 67 68 72 75 75 76 76 77 66 62 59 56 73 79 82 84 83 80 79 77 69 77 83 79 78
61 63 67 74 75 68 64 61 65 61 60 58 55 56 58 60 64 65 70 70 77 79 78 78 79 81 77 62 57 64 80 82 84 77 75 74 77 69 62 74 80 80 80
62 62 68 73 74 70 63 62 66 64 62 61 59 59 62 64 66 68 71 72 77 74 78 74 78 65 75 67 60 64 74 80 77 76 76 69 66 65 64 72 83 89 84
63 68 74 72 70 68 65 69 71 70 64 63 63 63 64 64 65 69 72 76 76 74 80 75 78 75 72 78 65 65 72 79 81 84 79 78 66 64 64 66 74 88 91
69 71 73 73 67 67 66 70 68 63 64 64 63 64 65 57 54 68 72 74 76 79 82 82 79 74 77 71 69 65 66 66 66 71 74 80 70 69 69 68 72 66 65
74 75 73 71 65 65 62 64 60 61 61 62 63 62 59 59 61 71 75 73 78 82 80 73 80 80 78 83 73 70 72 72 72 74 74 70 72 72 73 74 69 65 83
78 78 75 67 65 64 61 59 58 57 60 63 64 63 67 68 74 66 66 74 78 83 74 75 82 90 87 85 83 81 90 86 79 80 93 82 72 73 72 75 81 84 90
79 80 75 67 64 64 58 53 55 60 60 62 63 65 65 73 75 72 75 68 79 84 85 86 86 90 88 79 67 68 74 75 71 76 95 94 94 89 88 85 86 87 96
81 83 78 73 70 65 59 55 59 62 63 62 63 66 69 77 76 78 78 68 66 63 65 67 70 74 67 64 65 65 66 67 70 76 82 79 82 85 86 84 84 86 84
Wind_Speed
4 4 5 6 6 6 8 10 11 12 10 10 10 9 5 6 5 5 7 6 6 8 7 7 8 7 8 8 7 4 5 5 4 3 3 4 7 9 9 8 8 11 12
6 5 5 6 6 7 7 9 11 11 11 9 9 7 5 5 5 4 6 6 8 8 8 8 9 10 8 5 6 6 3 4 5 4 2 2 2 6 8 7 8 11 8
6 6 4 5 5 6 7 8 10 11 11 12 9 9 4 3 4 7 6 9 12 11 8 6 5 7 7 8 8 7 7 6 4 7 5 3 5 1 3 9 7 10 9
3 4 5 6 5 6 6 6 8 9 10 11 10 11 8 7 5 7 8 8 12 14 15 10 5 6 5 9 9 8 9 4 6 2 3 0 1 2 3 2 3 5 6
3 5 5 4 5 5 5 6 6 8 10 9 10 8 10 7 7 8 10 11 11 12 15 14 10 10 7 10 10 8 11 7 3 3 2 4 3 3 5 4 3 2 3
4 5 4 4 4 5 5 5 8 7 8 8 9 10 10 10 9 12 9 8 9 9 12 14 11 12 10 9 9 8 3 2 6 3 3 1 1 2 4 6 6 6 3
4 5 5 5 5 6 6 6 7 6 6 6 7 9 9 8 10 10 8 11 8 7 10 10 10 10 11 12 10 17 12 6 7 7 4 5 5 3 3 2 2 2 2
5 6 5 4 3 4 4 4 5 4 5 5 6 5 5 3 3 4 3 5 5 6 6 7 8 11 11 11 12 11 7 10 8 7 7 5 4 4 4 4 3 2 2
7 6 5 5 4 4 3 2 3 2 2 3 3 3 3 4 4 5 3 3 4 5 6 7 5 8 9 10 8 7 5 4 7 7 6 5 4 4 5 3 3 2 2
7 6 6 6 5 5 4 5 5 4 3 3 2 2 3 3 3 3 5 5 5 5 6 7 9 10 8 8 7 5 6 7 5 4 5 5 4 6 5 3 2 1 1
8 8 7 6 6 5 5 5 5 4 4 2 2 3 5 6 6 6 6 6 6 7 6 6 6 8 7 7 6 5 7 7 6 6 5 5 6 5 3 2 3 3 2
10 8 7 7 7 7 6 7 6 5 5 3 2 3 4 5 5 5 5 6 6 6 8 8 7 7 6 5 5 5 5 6 6 6 6 7 6 4 3 3 3 2 2
9 9 7 8 8 8 7 7 6 6 4 1 1 1 2 3 4 5 5 5 5 6 5 6 7 8 7 6 6 6 6 6 6 6 5 4 4 4 3 2 3 2 3
13 11 10 10 9 9 8 7 7 6 6 5 4 2 1 1 2 3 5 5 5 5 6 6 5 6 5 5 6 5 5 5 6 6 5 5 5 5 5 4 4 3 3
10 13 13 11 10 9 9 7 7 6 6 6 5 5 3 1 1 3 4 4 5 5 5 5 5 5 4 4 3 2 3 4 5 5 6 5 9 10 6 2 1 3 3
11 13 13 11 12 12 11 10 8 7 6 6 6 5 3 0 1 3 4 4 5 5 5 5 5 5 4 9 10 7 4 5 5 5 5 6 8 8 11 4 2 4 3
9 9 13 14 12 11 11 11 10 7 7 6 5 4 3 1 1 2 3 4 5 4 6 6 5 5 5 9 10 8 1 2 4 4 4 4 4 7 5 7 5 3 5
8 8 8 10 11 7 8 7 8 7 7 6 6 5 4 3 1 2 3 4 3 4 4 5 6 6 5 13 11 10 2 3 5 4 5 4 6 6 8 5 5 6 5
7 7 7 7 6 9 9 9 7 7 6 6 6 6 5 3 0 2 3 3 2 3 3 4 6 5 6 11 11 9 5 5 6 5 5 6 6 12 15 6 5 6 5
4 6 5 3 6 7 9 10 8 7 7 6 6 5 4 3 2 2 3 2 2 3 3 4 3 6 4 10 11 10 3 5 5 5 5 10 11 17 17 9 6 6 8
7 4 4 6 5 7 9 8 7 8 6 6 5 4 3 3 3 3 2 2 3 4 4 4 4 4 4 6 12 13 4 4 4 3 4 4 15 18 18 19 9 8 9
6 6 5 6 6 8 8 7 8 6 6 6 5 4 3 3 2 2 2 3 3 4 5 5 4 3 4 8 10 13 12 12 6 7 5 5 17 19 19 15 18 19 18
7 5 6 6 5 6 7 8 7 7 7 6 5 4 4 3 3 3 3 2 2 3 4 4 4 4 3 4 12 13 13 13 9 5 12 20 20 20 15 16 19 19 4
6 5 6 7 7 6 6 6 7 7 7 6 5 4 4 4 3 3 3 3 3 4 4 4 4 4 3 4 4 4 5 10 8 10 8 12 17 18 14 12 9 6 5
5 7 9 8 9 7 6 6 7 7 6 6 5 5 4 4 3 3 4 3 4 5 4 4 3 3 3 4 11 12 7 6 10 14 4 4 4 6 6 5 6 5 4
5 6 8 7 7 8 7 6 7 7 7 5 4 4 4 3 3 3 3 6 7 8 10 11 8 4 11 14 16 16 16 17 17 7 4 7 6 7 6 7 5 5 8
Wind_Direction
349 19 20 4 345 346 337 337 328 328 334 335 331 327 311 301 293 292 288 308 304 305 292 277 267 251 234 228 217 209 206 222 185 146 235 210 205 213 212 209 222 236 236
353 353 6 351 352 333 329 336 343 336 345 338 327 313 285 287 268 302 317 322 309 298 285 280 271 259 245 236 219 206 215 230 191 191 152 262 254 218 223 215 204 227 233
336 333 350 334 341 332 335 334 340 344 358 350 336 339 310 302 2 352 350 2 360 357 343 314 294 252 235 238 226 225 203 206 207 215 157 184 223 179 193 219 201 220 224
309 312 337 341 337 331 314 324 348 358 4 2 4 7 4 10 355 1 347 0 10 359 344 330 347 318 255 245 224 220 229 211 215 217 241 346 153 171 310 294 255 229 226
270 294 305 328 318 320 330 319 335 12 5 6 25 23 15 9 351 3 355 359 4 0 350 350 18 23 35 22 283 208 218 214 204 192 154 215 197 201 231 250 258 288 254
287 298 295 311 327 334 346 340 5 13 358 8 22 42 34 11 18 9 2 350 7 358 351 356 13 17 11 35 26 6 34 97 81 62 62 44 183 187 218 241 242 239 223
259 274 300 331 337 344 354 358 11 359 344 14 18 32 49 44 41 22 0 360 345 354 351 356 15 24 16 19 35 38 340 46 50 49 69 65 55 22 347 321 321 301 251
232 235 246 268 290 323 332 354 1 344 348 16 25 7 31 55 70 59 32 335 321 318 331 351 6 30 25 26 32 51 356 5 41 42 45 68 61 55 32 34 10 325 289
226 232 242 251 255 251 276 300 306 309 343 2 350 17 16 36 3 351 340 326 339 352 354 7 4 32 29 30 36 55 15 4 35 33 26 48 47 49 62 57 41 1 328
229 240 239 234 228 226 232 253 266 285 318 344 4 26 12 29 18 6 360 358 347 342 354 4 17 32 28 33 33 30 357 24 19 23 32 40 26 66 39 358 8 34 73
224 229 233 240 233 231 231 235 249 260 272 284 345 10 6 12 14 10 2 356 358 355 354 358 17 27 27 34 41 29 22 29 24 16 28 30 35 57 30 357 52 333 321
214 220 225 225 227 229 231 230 243 257 272 273 349 17 21 15 13 12 4 355 0 358 355 1 11 14 20 32 38 37 24 22 18 6 20 31 32 30 7 330 53 313 339
223 218 220 226 229 225 224 226 227 232 245 243 156 22 14 12 356 354 356 3 5 2 6 13 1 356 358 16 18 32 22 10 12 5 6 38 18 359 339 315 357 313 327
222 217 221 218 225 228 221 220 228 217 206 199 198 211 267 322 341 346 356 1 6 18 9 8 10 4 352 355 1 18 15 5 359 3 359 4 0 344 324 18 21 9 358
221 222 221 220 220 224 225 216 211 204 197 195 199 220 214 205 348 360 353 356 7 1 1 9 5 360 349 344 0 50 35 12 355 354 351 342 336 330 338 70 2 17 345
234 229 223 218 223 218 217 208 197 202 190 197 206 205 201 163 6 358 352 357 352 352 357 357 355 351 346 348 359 11 22 7 5 345 332 330 330 330 321 288 349 17 338
246 227 217 219 224 217 198 191 188 180 190 192 199 199 188 200 306 339 350 342 334 336 339 339 343 337 328 343 349 344 142 338 328 327 326 326 334 340 324 289 271 294 311
257 248 227 223 217 202 183 162 162 178 181 185 188 181 180 210 244 351 340 326 323 330 324 325 333 333 327 349 347 345 332 312 311 308 307 302 305 312 316 263 241 258 262
242 244 248 234 187 177 168 160 160 169 178 190 189 186 186 194 268 322 311 291 299 307 295 304 325 335 331 345 348 2 355 327 310 298 304 305 306 315 323 316 268 269 267
244 257 253 211 177 168 147 151 168 174 192 189 191 180 174 179 213 245 263 249 263 285 304 313 324 325 340 346 347 349 332 328 316 316 329 326 320 317 313 303 291 286 279
246 251 218 213 195 145 146 160 164 195 191 171 160 163 174 200 216 226 229 267 292 309 308 313 318 319 333 332 340 334 318 296 300 318 293 279 309 309 306 305 303 286 280
229 218 202 193 164 156 151 167 188 178 163 156 161 174 189 220 200 221 265 282 292 303 302 308 311 312 313 316 324 328 326 318 321 305 292 279 296 303 303 301 300 304 304
227 212 200 188 187 177 168 172 193 160 154 154 171 188 200 212 222 220 255 261 269 279 288 288 294 294 285 279 299 315 316 314 307 293 294 310 312 305 303 298 295 300 310
230 202 184 196 200 193 187 190 161 154 150 164 187 198 195 224 228 237 236 230 248 254 255 267 269 264 272 275 271 269 275 282 302 294 287 294 305 309 303 307 298 283 272
229 190 193 201 204 183 189 174 162 150 160 172 187 199 200 219 224 241 238 237 248 225 251 252 255 288 279 271 308 319 314 306 304 313 306 297 291 291 286 288 290 288 278
233 203 200 190 187 176 181 179 166 162 162 175 183 199 199 202 217 241 271 286 284 290 304 309 308 291 303 315 315 317 314 313 314 319 310 299 291 290 292 292 294 285 286